Aérodrome :
LOGIN :

S'inscrire | Disclaimer

   EN    FR    IT 

 










Légende :    VFR   VFR Marginal   IFR   IFR Intensif   IFR Très Intensif
Visi : 
Plafond : 
>= 8 km
>= 3000ft
5 à 8 km
1000 à 3000 ft
1500m à 5 km
500 à 1000 ft
800 à 1500m
200 à 500 ft
< 800m
< 200 ft
Symboles :   Orages  Brouillard  Fortes neiges  Fortes précipitations  Vent > 20 kt
SIGMETs :   Divers  Orages  Givrage  Turbulence  Onde Orograph.  Cendres Volcan.







- Altitude de l'aérodrome : 13 ft
- Code IATA : CAG


LIEE - Cagliari Elmas

DERNIER METAR :
  • 270350Z 32002KT CAVOK 15/13 Q1018

METARs EXPIRÉS :
  • 270320Z 04003KT 320V060 CAVOK 16/14 Q1017
  • 270250Z 05003KT CAVOK 16/14 Q1017
  • 270220Z 15004KT CAVOK 19/16 Q1017
  • 270150Z 15005KT CAVOK 19/16 Q1017
  • 270120Z 15004KT CAVOK 19/16 Q1017

TAF TAF LIEE
Valide du 27 à 00h jusqu'au 28 à 00h UTC


262300Z 2700/2724 VRB05KT CAVOK
BECMG 2708/2710 15012KT
BECMG 2718/2720 VRB05KT
Pas de NOTAMs connus pour ce terrain.



MET'MAP, la Météo Aéronautique d'un coup d'oeil ! - Copyright ORBIFLY Décembre 2007 - Disclaimer

ORBIFLY MET'MAP TEAM :

Programmation & Développement : Alexandra Zaïnal
Conception & Développement : Baudouin d'Aumeries
Co-Programmation & Développement : Marc-Olivier Méhu
Soutien technique & logistique : Manuel Goepfert

Contact : metmap@orbifly.com




SOURCES & CREDITS :

   NOAA